Waarnemingen

Advertentie
Mijn weer
Helgoland, Duitsland (10015): temperatuur & dauwpunt: 13.10.2017 12:00:00 - 19.10.2017 12:00:00 (CEST)Helgoland, Duitsland (10015): temperatuur 5cm: 13.10.2017 12:00:00 - 19.10.2017 12:00:00 (CEST)Helgoland, Duitsland (10015): windsnelheid & windstoten: 13.10.2017 12:00:00 - 19.10.2017 12:00:00 (CEST)Helgoland, Duitsland (10015): windrichting: 13.10.2017 12:00:00 - 19.10.2017 12:00:00 (CEST)Helgoland, Duitsland (10015): luchtdruk: 13.10.2017 12:00:00 - 19.10.2017 12:00:00 (CEST)Helgoland, Duitsland (10015): zicht: 13.10.2017 12:00:00 - 19.10.2017 12:00:00 (CEST)Helgoland, Duitsland (10015): Zonneschijnduur: 13.10.2017 12:00:00 - 19.10.2017 12:00:00 (CEST)Helgoland, Duitsland (10015): neerslag: 13.10.2017 12:00:00 - 19.10.2017 12:00:00 (CEST)
Datum & Tijd tt [°C] td [°C] tt 5cm [°C] ff [km/u] ff [kn] fx [km/u] fx [kn] dd ppp [hPa] vv [km] sd [min] rr [mm]
19.10.2017 12:00:00 13,3 12,7 14,4 33 18 37 20 ZO 1012,4 2,1 0 0,0
19.10.2017 11:00:00 13,1 12,4 13,7 32 17 38 20 ZO 1012,4 2,6 0 0,0
19.10.2017 10:00:00 13,1 11,7 13,2 30 16 34 19 OZO 1012,6 6 0 0,0
19.10.2017 09:00:00 13,0 12,0 13,0 28 15 32 17 OZO 1012,6 3,9 0 0,0
19.10.2017 08:00:00 13,3 12,6 13,2 30 16 38 20 ZO 1012,2 1,4 0 0,0
19.10.2017 07:00:00 13,4 12,1 13,2 31 17 36 19 ZO 1012,5 6 0 0,0
19.10.2017 06:00:00 13,2 11,6 13,0 31 17 37 20 ZO 1012,6 11 0 0,0
19.10.2017 05:00:00 13,4 11,7 12,9 33 18 37 20 ZO 1012,9 10 0 0,0
19.10.2017 04:00:00 13,7 11,9 12,7 29 16 37 20 OZO 1013,2 11 0 0,0
19.10.2017 03:00:00 13,8 11,6 13,2 31 17 37 20 OZO 1013,0 14 0 0,0
19.10.2017 02:00:00 14,0 11,5 13,0 25 14 28 15 O 1013,5 15 0 0,0
19.10.2017 01:00:00 13,9 11,6 13,1 22 12 25 14 O 1013,8 14 0 0,0
19.10.2017 00:00:00 14,0 11,7 13,3 20 11 25 14 O 1013,9 17 0 0,0
18.10.2017 23:00:00 13,9 12,0 13,5 18 10 26 14 O 1014,2 14 0 0,0
18.10.2017 22:00:00 13,9 10,7 13,6 21 11 23 13 O 1014,2 36 0 0,0
18.10.2017 21:00:00 13,9 11,1 13,5 17 9 19 10 O 1014,3 29 0 0,0
18.10.2017 20:00:00 13,8 11,0 12,3 16 9 18 10 O 1014,2 30 0 0,0
18.10.2017 19:00:00 13,9 11,2 13,0 11 6 13 7 ONO 1014,4 27 0 0,0
18.10.2017 18:00:00 14,0 11,4 13,5 11 6 13 7 OZO 1014,3 26 0 0,0
18.10.2017 17:00:00 14,4 11,5 14,9 10 5 12 7 ZO 1014,4 26 0 0,0
18.10.2017 16:00:00 14,5 11,2 15,5 4 2 6 3 ZZO 1014,5 30 0 0,0
18.10.2017 15:00:00 14,7 11,5 15,7 3 2 9 5 ZW 1014,8 26 6 0,0
18.10.2017 14:00:00 15,2 11,6 18,4 8 5 11 6 ZZW 1015,1 19 53 0,0
18.10.2017 13:00:00 15,8 9,5 18,9 2 1 8 5 ZW 1015,1 41 26 0,0
18.10.2017 12:00:00 14,9 9,3 16,8 7 4 12 7 W 1015,2 42 19 0,0
18.10.2017 11:00:00 14,6 9,5 15,0 12 6 16 8 W 1015,3 54 47 0,0
18.10.2017 10:00:00 14,3 9,7 13,5 13 7 20 11 W 1015,1 32 14 0,0
18.10.2017 09:00:00 14,4 10,1 12,9 16 9 24 13 W 1015,1 34 0 0,0
18.10.2017 08:00:00 14,2 9,3 12,8 18 10 29 16 W 1014,8 40 0 0,0
18.10.2017 07:00:00 14,4 9,7 13,2 22 12 29 16 W 1015,0 35 0 0,0
18.10.2017 06:00:00 14,3 10,0 13,2 23 13 34 18 W 1015,0 18 0 0,0
18.10.2017 05:00:00 14,1 10,9 12,9 23 13 34 19 WZW 1015,0 22 0 0,0
18.10.2017 04:00:00 14,0 11,2 12,9 27 14 36 20 WZW 1015,3 17 0 0,0
18.10.2017 03:00:00 14,3 9,3 13,2 32 17 41 22 W 1015,6 23 0 0,0
18.10.2017 02:00:00 14,5 9,7 13,5 32 18 40 22 W 1015,9 21 0 0,0
18.10.2017 01:00:00 14,4 9,6 13,3 36 19 42 23 W 1015,9 15 0 0,0
18.10.2017 00:00:00 14,4 9,6 13,4 37 20 48 26 W 1016,2 14 0 0,0
17.10.2017 23:00:00 14,4 9,5 13,3 36 20 50 27 W 1016,1 12 0 0,0
17.10.2017 22:00:00 14,6 9,8 13,5 41 22 51 28 W 1016,2 11 0 0,0
17.10.2017 21:00:00 14,5 10,3 13,8 41 22 58 31 WZW 1016,2 11 0 0,0
17.10.2017 20:00:00 14,5 10,2 13,8 46 25 63 34 WZW 1016,2 12 0 0,0
17.10.2017 19:00:00 14,4 9,7 13,4 49 27 63 34 WZW 1015,9 15 0 0,0
17.10.2017 18:00:00 14,6 10,4 13,6 41 22 59 32 WZW 1016,1 14 10 0,0
17.10.2017 17:00:00 14,8 10,2 14,5 44 24 61 33 WZW 1016,5 13 33 0,0
17.10.2017 16:00:00 14,9 10,3 14,9 41 22 62 34 WZW 1017,1 9 30 0,0
17.10.2017 15:00:00 15,1 11,4 15,5 38 21 59 32 WZW 1017,3 10 34 0,0
17.10.2017 14:00:00 14,9 11,2 15,8 42 23 61 33 ZW 1017,7 14 24 0,0
17.10.2017 13:00:00 14,7 11,2 15,3 43 23 59 32 ZW 1017,9 12 1 0,0
17.10.2017 12:00:00 14,5 11,3 14,7 43 23 54 29 ZW 1017,7 12 0 0,0
17.10.2017 11:00:00 14,6 11,4 14,5 40 21 52 28 WZW 1018,0 11 0 0,0
17.10.2017 10:00:00 14,5 11,5 13,8 38 21 54 29 ZW 1017,9 12 0 0,0
17.10.2017 09:00:00 14,8 11,9 14,0 37 20 59 32 ZW 1017,6 12 0 0,0
17.10.2017 08:00:00 15,0 12,1 14,0 39 21 55 30 WZW 1017,2 12 0 0,0
17.10.2017 07:00:00 15,3 11,9 14,2 40 21 50 27 WZW 1016,8 14 0 0,0
17.10.2017 06:00:00 15,9 11,7 14,7 39 21 57 31 WZW 1016,8 18 0 0,0
17.10.2017 05:00:00 16,2 12,4 14,9 35 19 46 25 ZW 1017,0 16 0 0,0
17.10.2017 04:00:00 16,5 13,6 15,3 34 18 46 25 ZW 1017,0 13 0 0,0
17.10.2017 03:00:00 16,9 14,3 15,8 34 18 42 23 ZW 1017,1 10 0 0,0
17.10.2017 02:00:00 17,1 14,4 15,7 31 17 41 22 ZZW 1017,2 9 0 0,0
17.10.2017 01:00:00 17,2 14,4 15,8 31 17 39 21 ZZW 1017,0 9 0 0,0
17.10.2017 00:00:00 17,1 14,5 15,7 29 16 33 18 Z 1016,5 9 0 0,0
16.10.2017 23:00:00 17,2 14,8 15,9 26 14 32 17 Z 1016,9 8 0 0,0
16.10.2017 22:00:00 17,0 14,9 15,6 27 15 32 18 Z 1016,9 8 0 0,0
16.10.2017 21:00:00 16,2 14,6 15,0 26 14 30 16 Z 1017,2 6 0 0,0
16.10.2017 20:00:00 16,5 14,8 15,2 26 14 29 15 ZZO 1017,5 6 0 0,0
16.10.2017 19:00:00 16,0 14,6 14,8 19 11 23 12 ZZO 1018,0 5 0 0,0
16.10.2017 18:00:00 16,3 14,5 15,7 15 8 20 11 ZZO 1018,2 6 0 0,0
16.10.2017 17:00:00 17,1 14,7 17,7 16 8 22 12 ZZW 1018,6 7 54 0,0
16.10.2017 16:00:00 17,1 14,6 18,9 19 11 28 15 ZZW 1018,9 8 60 0,0
16.10.2017 15:00:00 17,2 14,2 19,7 23 12 30 16 ZZW 1019,4 7 60 0,3
16.10.2017 14:00:00 16,5 14,0 19,2 25 13 31 17 ZZW 1019,5 6 60 0,1
16.10.2017 13:00:00 16,1 13,7 19,0 26 14 30 16 ZZW 1019,7 5 60 0,0
16.10.2017 12:00:00 15,8 13,4 18,3 23 12 29 15 ZZW 1019,5 6 60 0,0
16.10.2017 11:00:00 15,4 13,4 17,1 22 12 30 16 ZZW 1019,3 6 51 0,0
16.10.2017 10:00:00 14,9 13,4 14,2 25 13 30 16 ZZW 1019,0 4,7 12 0,1
16.10.2017 09:00:00 15,0 13,7 14,0 25 13 31 17 ZZW 1018,7 3,8 0 0,0
16.10.2017 08:00:00 15,1 14,1 14,0 20 11 27 15 ZW 1018,4 3,2 0 0,1
16.10.2017 07:00:00 15,3 14,0 14,7 22 12 32 17 WZW 1018,5 3,9 0 0,0
16.10.2017 06:00:00 15,6 14,0 15,2 23 12 34 18 WZW 1018,3 4,7 0 0,1
16.10.2017 05:00:00 15,6 13,7 15,0 24 13 32 18 WZW 1018,3 6 0 0,2
16.10.2017 04:00:00 15,4 13,7 13,9 21 11 32 18 ZW 1018,2 6 0 0,0
16.10.2017 03:00:00 16,1 13,5 14,7 24 13 34 18 ZW 1018,3 9 0 0,0
16.10.2017 02:00:00 16,5 13,4 14,9 30 16 37 20 ZZW 1018,3 10 0 0,0
16.10.2017 01:00:00 16,5 13,3 14,9 31 17 37 20 ZZW 1018,3 11 0 0,0
16.10.2017 00:00:00 16,8 13,4 15,0 32 17 37 20 ZZW 1018,4 14 0 0,0
15.10.2017 23:00:00 16,2 13,7 14,6 27 14 34 19 ZZW 1018,4 12 0 0,0
15.10.2017 22:00:00 16,7 13,9 15,1 30 16 34 19 ZZW 1018,3 13 0 0,0
15.10.2017 21:00:00 16,2 13,9 14,7 29 15 34 18 Z 1018,2 13 0 0,0
15.10.2017 20:00:00 16,2 13,8 14,7 28 15 32 17 Z 1018,3 14 0 0,0
15.10.2017 19:00:00 16,2 13,8 14,6 24 13 29 15 Z 1018,7 15 0 0,0
15.10.2017 18:00:00 16,2 13,7 15,3 21 12 24 13 Z 1018,9 13 58 0,0
15.10.2017 17:00:00 16,6 13,8 17,7 21 12 28 15 Z 1019,2 10 60 0,0
15.10.2017 16:00:00 16,4 14,0 19,4 20 11 26 14 ZZO 1019,8 6 60 0,0
15.10.2017 15:00:00 16,1 14,0 19,9 22 12 25 14 ZZO 1020,4 4,1 60 0,0
15.10.2017 14:00:00 15,9 13,9 19,4 23 12 31 17 Z 1020,9 3,9 60 0,0
15.10.2017 13:00:00 15,5 13,5 18,6 27 14 30 16 Z 1021,5 4,7 60 0,0
15.10.2017 12:00:00 15,7 13,5 18,2 22 12 27 14 Z 1022,1 5 51 0,0
15.10.2017 11:00:00 14,9 13,3 16,0 24 13 29 16 Z 1022,6 4,8 48 0,1
15.10.2017 10:00:00 14,9 13,4 15,1 24 13 31 17 Z 1022,8 4,3 60 0,0
15.10.2017 09:00:00 14,6 13,2 13,5 24 13 29 16 ZZW 1022,9 4,9 15 0,2
15.10.2017 08:00:00 14,5 13,5 13,0 22 12 29 15 ZZW 1022,9 4,0 0 0,0
15.10.2017 07:00:00 14,5 13,6 13,3 24 13 30 16 ZZW 1023,2 4,4 0 0,0
15.10.2017 06:00:00 14,7 13,8 13,7 24 13 32 17 ZW 1023,2 4,8 0 0,0
15.10.2017 05:00:00 14,7 13,9 13,7 25 14 32 17 ZW 1023,2 4,3 0 0,1
15.10.2017 04:00:00 14,7 13,9 13,7 26 14 33 18 ZW 1023,4 3,7 0 0,1
15.10.2017 03:00:00 14,9 14,0 14,0 26 14 36 19 ZW 1023,8 4,9 0 0,0
15.10.2017 02:00:00 15,1 14,0 14,4 30 16 36 19 ZW 1023,4 6 0 0,0
15.10.2017 01:00:00 15,3 14,1 15,2 27 15 38 20 ZW 1023,7 7 0 0,0
15.10.2017 00:00:00 15,4 14,1 15,2 31 17 41 22 WZW 1023,8 9 0 0,0
14.10.2017 23:00:00 15,4 14,2 15,3 29 15 39 21 ZW 1023,8 9 0 0,0
14.10.2017 22:00:00 15,6 14,4 15,4 29 16 45 24 WZW 1023,8 11 0 0,0
14.10.2017 21:00:00 15,7 14,4 15,5 37 20 47 26 WZW 1023,8 11 0 0,0
14.10.2017 20:00:00 15,6 14,4 15,5 32 18 40 22 WZW 1023,7 10 0 0,0
14.10.2017 19:00:00 15,6 14,5 15,5 33 18 40 22 WZW 1023,1 9 0 0,0
14.10.2017 18:00:00 15,7 14,5 15,7 34 19 42 23 WZW 1022,6 10 0 0,0
14.10.2017 17:00:00 15,7 14,5 15,9 32 18 42 23 WZW 1022,7 8 0 0,0
14.10.2017 16:00:00 15,8 14,4 16,9 33 18 44 24 WZW 1022,6 7 0 0,0
14.10.2017 15:00:00 15,8 14,4 16,5 34 19 47 26 WZW 1022,4 10 0 0,0
14.10.2017 14:00:00 15,7 14,4 16,6 32 17 47 26 ZW 1022,1 9 0 0,0
14.10.2017 13:00:00 15,6 14,3 16,5 35 19 46 25 WZW 1022,5 9 0 0,0
14.10.2017 12:00:00 15,6 14,4 16,4 30 16 43 23 WZW 1022,2 9 0 0,0
14.10.2017 11:00:00 15,5 14,3 15,8 33 18 48 26 ZW 1022,0 9 0 0,0
14.10.2017 10:00:00 15,5 14,3 15,6 33 18 50 27 WZW 1021,7 8 0 0,0
14.10.2017 09:00:00 15,5 14,3 15,4 39 21 52 28 WZW 1021,1 9 0 0,0
14.10.2017 08:00:00 15,4 14,2 15,2 41 22 48 26 WZW 1020,8 8 0 0,1
14.10.2017 07:00:00 15,4 14,3 15,2 39 21 49 26 WZW 1020,7 8 0 0,0
14.10.2017 06:00:00 15,5 14,2 15,2 40 22 50 27 WZW 1020,6 9 0 0,2
14.10.2017 05:00:00 15,4 14,2 15,0 35 19 49 26 WZW 1020,5 9 0 0,1
14.10.2017 04:00:00 15,6 14,2 15,4 36 20 50 27 ZW 1020,5 10 0 0,0
14.10.2017 03:00:00 15,7 14,3 15,5 36 19 49 26 ZW 1020,6 11 0 0,0
14.10.2017 02:00:00 15,7 14,3 15,5 38 21 49 27 ZW 1020,4 11 0 0,0
14.10.2017 01:00:00 15,8 14,3 15,6 37 20 48 26 ZW 1020,2 11 0 0,0
14.10.2017 00:00:00 15,8 14,3 15,5 39 21 51 28 ZW 1020,5 12 0 0,0
13.10.2017 23:00:00 15,9 14,3 15,7 40 22 49 26 ZW 1020,5 13 0 0,0
13.10.2017 22:00:00 15,9 14,2 15,6 38 21 46 25 ZW 1020,6 15 0 0,0
13.10.2017 21:00:00 15,6 14,2 15,5 39 21 48 26 ZW 1020,6 10 0 0,0
13.10.2017 20:00:00 15,4 14,4 15,2 39 21 51 28 ZW 1020,6 11 0 0,1
13.10.2017 19:00:00 15,4 14,2 15,3 39 21 51 27 WZW 1020,7 14 0 0,0
13.10.2017 18:00:00 15,5 13,9 15,4 33 18 43 23 WZW 1020,6 9 0 0,0
13.10.2017 17:00:00 15,6 13,6 15,7 34 18 45 24 ZW 1020,7 10 0 0,0
13.10.2017 16:00:00 15,6 13,3 15,8 37 20 51 28 ZW 1020,9 11 0 0,0
13.10.2017 15:00:00 15,4 12,8 16,4 37 20 49 26 ZW 1020,8 11 54 0,0
13.10.2017 14:00:00 15,0 12,2 17,0 35 19 50 27 ZW 1020,7 17 49 0,0
13.10.2017 13:00:00 14,1 11,8 14,6 39 21 49 26 ZW 1020,6 13 30 0,0
13.10.2017 12:00:00 13,8 11,4 15,2 39 21 45 24 ZW 1020,6 13 41 0,0

tt = temperatuur
td = dauwpunt
tt 5cm = temperatuur 5cm
ff = windsnelheid
fx = windstoten
dd = windrichting
ppp = luchtdruk
vv = zicht
sd = Zonneschijnduur
rr = neerslag

Weerstations in de omgeving